Location: New Castle
(41.0037°N, 80.3470°W)
Time: 00:16:09
(UTC+00:00)

Daily predictions for brighter satellites

Satellite Brightness Start Highest point End
(mag) Time Altitude Azimuth Time Altitude Azimuth Time Altitude Azimuth
Cosmos 2082 4.3 00:01:02 10° SSE 00:05:54 33° ESE 00:05:54 33° ESE
USA 116 3.5 00:05:15 27° N 00:06:49 64° WNW 00:09:54 10° SSW
ATLAS 5 CENTAUR R/B 4.2 00:06:52 10° NW 00:08:44 12° NNW 00:10:40 10° N
Ariane Rocket 3.0 00:16:02 40° ESE 00:17:26 53° ENE 00:22:22 10° N
Cosmos 1339 Rocket 4.3 00:12:13 10° N 00:18:16 67° E 00:24:20 10° SSE
Cosmos 864 Rocket 4.4 00:12:22 10° S 00:18:24 63° E 00:24:26 10° NNE
Cosmos 2297 Rocket 2.1 00:13:30 10° SSW 00:19:08 80° ESE 00:21:45 33° NNE
Cosmos 1241 Rocket 4.3 00:12:54 10° NNW 00:19:10 85° ENE 00:24:50 13° SSE
Cosmos 1980 3.6 00:16:19 10° NNW 00:22:03 89° ENE 00:27:44 10° SSE
Cosmos-2242 2.9 00:18:42 10° N 00:23:03 89° ENE 00:27:21 10° S
Cosmos 2227 Rocket 2.1 00:25:17 10° SSW 00:30:56 89° ESE 00:32:56 42° NNE
Cosmos 1953 Rocket 3.7 00:29:53 10° SSW 00:34:21 75° W 00:35:18 54° NNW
DELTA 2 R/B (1) 3.5 00:29:22 10° WSW 00:34:56 68° SSE 00:35:31 63° SE
Cosmos 2219 Rocket 4.3 00:31:29 10° NW 00:36:12 27° WSW 00:40:52 10° SSW
Atlas Centaur 2 4.1 00:32:56 10° S 00:36:13 17° SSE 00:36:13 17° SSE
Cosmos 1959 Rocket 4.4 00:30:33 10° S 00:36:45 86° W 00:42:56 10° N
Cosmos 44 4.2 00:33:28 10° SSW 00:36:21 35° S 00:36:21 35° S
ADEOS Rocket 3.2 00:31:45 10° NNE 00:38:15 87° ESE 00:45:29 10° SSW
CZ-4C R/B 3.4 00:31:45 10° NW 00:39:06 63° WSW 00:47:19 10° SSE
Cosmos 2366 rocket 4.0 00:38:41 10° S 00:44:52 78° W 00:51:09 10° N
SL-8 R/B 4.4 00:45:26 10° SW 00:49:01 48° SSW 00:49:01 48° SSW
IRS-1A Rocket 4.3 00:48:52 10° SSE 00:54:42 80° WSW 01:00:27 10° NNW
Cosmos 1727 Rocket 4.0 01:05:04 10° NNW 01:11:15 73° W 01:11:36 71° WSW
Cosmos 2237 Rocket 3.9 01:19:25 10° NW 01:24:12 29° WSW 01:28:46 11° SSW
SL-16 R/B 4.1 01:38:27 10° NNW 01:40:26 22° NW 01:40:26 22° NW
Centaur D AC-28 4.5 01:38:11 10° WSW 01:46:55 25° SSW 01:46:55 25° SSW
CZ-3 R/B 4.2 08:53:03 44° SSW 08:57:06 48° S 09:07:07 10° ESE
Cosmos 2297 Rocket 4.0 09:15:23 26° ESE 09:15:23 26° ESE 09:18:18 10° SE
Cosmos 2227 Rocket 3.6 09:26:32 34° E 09:26:32 34° E 09:30:17 10° SE
Cosmos 2074 Rocket 4.4 09:45:46 30° NNE 09:48:53 59° E 09:55:00 10° SSE
Lacrosse 5 rocket 4.3 09:52:35 11° NNE 09:52:35 11° NNE 09:52:46 10° NNE
CZ-3 Stage 3 4.2 10:01:33 36° SSW 10:01:33 36° SSW 10:05:31 10° SE
ALOS 3.6 10:05:28 10° NNE 10:09:50 37° E 10:14:09 10° SSE
Cosmos 2344 3.5 10:06:58 33° SSW 10:10:47 83° ESE 10:18:42 10° NE
Cosmos 1980 Rocket 3.6 10:07:32 10° S 10:12:42 37° ESE 10:17:53 10° NE
Meteor 1-24 Rocket 3.8 10:18:45 61° SSW 10:18:45 61° SSW 10:23:46 10° S
FENGYUN 3A 4.5 10:15:17 10° NNE 10:20:32 49° E 10:25:46 10° S
Cosmos 1697 Rocket 2.6 10:19:13 40° SSW 10:21:19 83° ESE 10:26:58 10° NNE
USA 215 3.2 10:19:57 10° SE 10:26:29 79° NE 10:29:08 39° NW
SJ-12 4.4 10:22:51 10° NNE 10:26:53 59° E 10:30:53 10° S
Cosmos 1602 Rocket 3.5 10:31:36 72° NNE 10:31:58 81° E 10:36:17 10° S
Cosmos 773 Rocket 3.9 10:31:13 17° SSW 10:35:22 86° WNW 10:40:42 10° NNE
Cosmos 2327 Rocket 4.3 10:31:47 10° N 10:38:05 82° W 10:44:15 10° S
SKYMED 2 3.5 10:34:11 10° SSE 10:38:32 87° ENE 10:39:49 46° N
Nadezhda 1 Rocket 3.8 10:32:43 10° S 10:38:48 79° W 10:44:55 10° N
Cosmos 2082 3.6 10:41:43 35° NNW 10:44:13 76° WSW 10:49:54 10° SSE
CENTAUR R/B 4.3 10:38:25 11° NNW 10:45:26 38° NE 10:53:21 10° ESE
CZ-4B DEB 4.3 10:41:55 10° NNE 10:47:30 79° ESE 10:53:01 10° S
Okean O Rocket 2.6 10:43:12 10° NNE 10:47:33 49° E 10:51:50 10° S
Cosmos 1758 Rocket 4.3 10:44:18 10° N 10:48:35 52° E 10:52:52 10° SSE
ATLAS 2AS CENTAUR R/B 3.8 10:43:26 10° S 10:51:01 53° ESE 10:58:44 10° NE
ADEOS Rocket 4.2 10:47:52 10° SE 10:52:50 36° ENE 10:57:52 10° N
Helios 1A Rocket 4.3 10:49:00 10° NNE 10:52:54 41° E 10:56:48 10° S
Cosmos 1626 Rocket 4.3 10:56:25 34° SW 10:56:25 34° SW 10:59:22 10° SSW
Cosmos 2297 Rocket 2.9 10:57:15 31° WSW 10:57:15 31° WSW 11:01:54 10° SSW
STARLINK-80 4.5 10:57:37 31° N 10:57:37 31° N 11:00:33 10° NE
STARLINK-48 3.9 10:57:26 44° NNW 10:57:26 44° NNW 11:01:02 10° NE
STARLINK-71 4.5 10:54:42 16° SSW 10:57:38 47° SE 11:01:31 10° ENE
USA 116 4.2 10:54:11 10° SSE 10:59:11 84° ENE 11:03:40 10° N
Meteor 2-17 Rocket 4.3 10:55:05 10° N 11:01:12 85° W 11:07:15 10° S
STARLINK-57 4.4 10:59:16 14° SSW 11:02:30 50° SE 11:06:24 10° ENE
Cosmos 2184 Rocket 4.4 10:58:52 19° NNW 11:02:41 38° W 11:08:21 10° SSW
USA 238 DEB 4.0 10:56:36 15° NNW 11:02:44 76° NE 11:10:10 10° SE
USA 238 4.0 10:56:42 15° NNW 11:02:50 75° NE 11:10:16 10° SE
STARLINK-49 4.4 11:00:33 12° SSW 11:04:02 49° SE 11:07:55 10° ENE
Cosmos 44 Rocket 3.1 11:01:49 27° NNW 11:04:22 87° WSW 11:09:08 10° SSE
Cosmos 2360 4.1 10:59:07 10° SSW 11:04:48 67° WNW 11:10:31 10° NNE
USA 32 4.5 10:59:58 10° N 11:05:11 64° E 11:10:23 10° SSE
STARLINK-27 4.3 11:02:09 12° SSW 11:05:40 51° SE 11:09:35 10° ENE
EXPRESS MD2 4.2 11:06:51 23° N 11:06:51 23° N 11:08:21 10° NE
STARLINK-74 4.3 11:03:43 12° SSW 11:07:19 52° SE 11:11:15 10° ENE
Cosmos 1538 Rocket 4.0 11:02:29 10° SSW 11:07:47 62° WNW 11:13:04 10° NNE
Cosmos 2227 Rocket 3.0 11:08:25 28° W 11:08:48 28° WSW 11:13:30 10° SSW
STARLINK-39 4.2 11:05:21 12° SSW 11:08:58 54° SE 11:12:54 10° ENE
SL-4 R/B 2.9 11:07:51 25° NNW 11:09:06 32° NNE 11:12:15 10° E
Cosmos 2154 Rocket 4.0 11:04:37 10° NNW 11:10:37 53° W 11:16:35 10° SSW
STARLINK 4.1 11:06:57 12° SW 11:10:37 57° SE 11:14:34 10° ENE
STARLINK-69 3.9 11:09:01 13° SW 11:12:27 64° SE 11:16:28 10° ENE
STARLINK-21 4.0 11:10:12 11° SW 11:13:57 61° SE 11:17:56 10° ENE
Cosmos 1825 Rocket 3.5 11:10:42 10° N 11:15:02 89° NE 11:19:23 10° S
STARLINK-45 3.7 11:12:22 13° SW 11:15:50 71° SE 11:19:50 10° NE
Cosmos 1626 4.3 11:18:39 12° SW 11:18:39 12° SW 11:19:05 10° SW
Cosmos 2263 Rocket 3.4 11:11:37 10° N 11:16:58 41° ENE 11:22:17 10° SE
STARLINK-70 3.8 11:13:41 12° SW 11:17:22 70° SE 11:21:23 10° NE
BREEZE-M DEB (TANK) 2.9 11:17:36 27° SW 11:17:36 27° SW 11:19:26 10° SSE
NOSS 2-2 (D) 3.7 11:17:02 33° WNW 11:17:40 36° NW 11:21:23 10° NNE
STARLINK-76 3.8 11:15:00 10° SW 11:18:55 68° SE 11:22:56 10° NE
STARLINK 3.8 11:16:37 10° SW 11:20:36 71° SE 11:24:36 10° NE
STARLINK-32 3.7 11:18:12 10° SW 11:22:12 73° SE 11:26:14 10° NE
Cosmos 2278 4.0 11:18:07 10° SW 11:23:31 43° WNW 11:28:58 10° N
STARLINK-40 3.7 11:19:52 10° SW 11:23:52 76° SE 11:27:54 10° NE
STARLINK-26 3.6 11:22:54 31° WNW 11:24:02 41° NNW 11:27:25 10° NE
STARLINK-33 3.2 11:21:25 14° SW 11:24:27 86° SE 11:28:08 10° NE
H-2A R/B 3.5 11:20:44 10° NNE 11:24:36 55° E 11:28:25 10° S
STARLINK-44 3.6 11:21:29 10° SW 11:25:29 78° SE 11:29:30 10° NE
STARLINK-42 3.4 11:22:19 12° SW 11:25:52 84° SE 11:29:42 10° NE
STARLINK-64 3.4 11:22:58 11° SW 11:26:38 83° SE 11:30:29 10° NE
COSMO-SKYMED 1 3.5 11:23:05 10° SSW 11:26:47 27° W 11:28:28 21° WNW
STARLINK-37 3.5 11:23:15 10° SW 11:27:16 85° SE 11:31:19 10° NE
STARLINK-36 3.6 11:24:49 10° SW 11:28:50 83° SE 11:32:53 10° NE
STARLINK-66 3.2 11:26:01 13° SW 11:29:10 85° NW 11:32:50 10° NE
Lacrosse 5 rocket 3.8 11:28:13 10° NNW 11:29:31 11° N 11:30:55 10° N
STARLINK-68 3.5 11:26:39 10° SW 11:30:40 87° NW 11:34:43 10° NE
Cosmos 1606 Rocket 3.6 11:27:07 10° SSW 11:31:30 60° W 11:35:55 10° N
COSMOS 2455 2.8 11:25:41 10° SW 11:31:36 62° WNW 11:37:36 10° NNE
STARLINK-63 3.5 11:28:13 10° SW 11:32:14 88° NW 11:36:17 10° NE
STARLINK-35 3.5 11:29:46 10° SW 11:33:48 89° NW 11:37:51 10° NE
Cosmos 1726 Rocket 3.5 11:29:55 10° SSW 11:34:21 71° W 11:38:47 10° N
STARLINK-55 3.2 11:31:09 12° WSW 11:34:26 75° NW 11:38:05 10° NE
NOAA 6 4.1 11:30:08 10° N 11:35:12 55° WNW 11:40:14 10° SSW
Cosmos 1908 3.4 11:31:21 10° S 11:35:15 79° E 11:39:11 10° N
STARLINK-51 3.5 11:31:25 10° SW 11:35:26 86° NW 11:39:28 10° NE
STARLINK-30 3.5 11:33:04 10° SW 11:37:06 84° NW 11:41:08 10° NE
SL-16 R/B 3.0 11:31:57 10° S 11:37:28 56° ESE 11:43:01 10° NNE
STARLINK-72 3.4 11:34:43 10° SW 11:38:44 81° NW 11:42:47 10° NE
STARLINK-50 3.4 11:36:23 10° SW 11:40:24 79° NW 11:44:26 10° NE
STARLINK-61 3.8 11:37:31 14° WSW 11:40:39 48° NNW 11:44:31 10° NE
Cosmos 1703 3.2 11:36:56 10° N 11:40:55 89° E 11:44:51 10° S
Cosmos 2366 rocket 4.1 11:34:48 10° N 11:41:12 87° E 11:47:34 10° S
Cosmos 1953 3.3 11:37:51 10° SW 11:41:15 26° WNW 11:44:41 10° NNW
Abrixas rocket 3.6 11:39:43 15° NW 11:41:30 25° NNE 11:44:06 10° ENE
Cosmos 1680 Rocket 3.6 11:36:36 10° SSW 11:41:55 89° ESE 11:47:17 10° NNE
STARLINK-59 3.5 11:38:09 10° WSW 11:42:10 73° NW 11:46:12 10° NE
Cosmos 1726 2.4 11:39:09 10° SSW 11:42:39 42° W 11:46:09 10° N
Envisat 4.3 11:38:08 10° NNE 11:43:02 45° E 11:47:53 10° S
STARLINK-56 3.5 11:39:41 10° WSW 11:43:42 74° NW 11:47:44 10° NE
Meteor 1-16 Rocket 4.4 11:39:18 10° SSW 11:45:09 59° WNW 11:50:59 10° N
Starlink (trailer) 3.5 11:41:22 10° WSW 11:45:23 72° NW 11:49:25 10° NE
STARLINK-28 3.3 11:42:35 10° WSW 11:45:59 54° NW 11:49:29 10° NE
ALOS 3.4 11:43:24 10° NNW 11:47:00 22° WNW 11:50:35 10° WSW
STARLINK-38 3.5 11:43:01 10° WSW 11:47:02 69° NW 11:51:03 10° NE
AQUARIUS 4.3 11:42:38 10° NNE 11:47:09 79° ESE 11:51:38 10° S
CZ-4B R/B 3.4 11:43:10 10° N 11:48:29 48° WNW 11:53:42 10° SW
Cosmos 972 Rocket 4.5 11:42:27 10° NNW 11:48:36 55° W 11:54:03 10° S
STARLINK-65 3.5 11:44:40 10° WSW 11:48:40 68° NW 11:52:42 10° NE
STARLINK-53 3.5 11:46:26 10° WSW 11:50:25 63° NW 11:54:25 10° NE
Cosmos 2360 Rocket 4.4 11:45:37 10° SSE 11:50:28 30° ESE 11:55:19 10° NE
Meteor 1-11 4.3 11:48:02 10° N 11:53:40 88° ENE 11:59:18 10° S
STARLINK-75 3.7 11:52:10 10° WSW 11:55:57 50° NNW 11:59:46 10° NE
FALCON 9 DEB 2.0 11:56:34 13° WSW 11:57:58 37° NW 11:59:41 10° NE
